Location: Godiavel Galaoual
(15.2485°N, 12.6604°W)
Time: 22:19:06
(UTC+00:00)

METEOR M2 - Pass Details

Date: 30 July 2021
Orbit: 818 x 827 km, 98.5° (Epoch: 25 September)

Event Time Altitude Azimuth Distance (km) Brightness Sun altitude
Rises 19:36:36 0° 158° (SSE) 3,354 ? -4.3°
Reaches altitude 10° 19:38:59 10° 154° (SSE) 2,422 ? -4.8°
Maximum altitude 19:44:13 56° 76° (ENE) 975 ? -6.0°
Drops below altitude 10° 19:49:28 10° 359° (N) 2,424 ? -7.2°
Sets 19:51:51 0° 355° (N) 3,357 ? -7.7°
